M I D A S
Marine Information and Data Acquisition System
Tripno 719 of the Zeeleeuw from 2004-05-18 06:12:13 to 2004-05-18 12:34:22
Back to CruiseResearch ActivitiesStationsMapUnderway DataData graphs

EquipmentUnitsComments
TimeDGPSUTC
LatitudeDGPSDM.mWGS84
LongitudeDGPSDM.mWGS84
SpeedMeteo Stationm/sRelative wind speed
DirectionMeteo StationdegRelative wind direction
TemperatureMeteo Stationdeg CelciusAir temperature
PressureMeteo StationPaAtmospheric pressure
HumidityMeteo Station%Relative humidity
Missing or incorrect values are displayed as -999
Metereological data collected by the RV Zeeleeuw from 2004-05-18 06:12:13 to 2004-05-18 12:34:22
                                                                                    Next 1000 lines
Time Latitude Longitude Speed Direction Temperature Pressure Humidity
2004-05-18 06:12:19 51°13.667 2°55.856 3.8 218 13.9 102450 80
2004-05-18 06:12:24 51°13.669 2°55.846 3.8 214 13.9 102450 80
2004-05-18 06:12:29 51°13.671 2°55.836 3.7 214 14 102450 80
2004-05-18 06:12:34 51°13.673 2°55.827 3.3 224 14 102450 80
2004-05-18 06:12:39 51°13.674 2°55.818 4.2 226 13.9 102450 80
2004-05-18 06:12:44 51°13.675 2°55.809 3.5 243 13.9 102450 80
2004-05-18 06:12:49 51°13.676 2°55.8 3 244 13.9 102450 80
2004-05-18 06:12:54 51°13.677 2°55.791 3.3 237 13.9 102450 80
2004-05-18 06:12:58 51°13.678 2°55.785 3.2 239 13.9 102450 80
2004-05-18 06:13:03 51°13.679 2°55.777 2.1 254 13.9 102450 80
2004-05-18 06:13:08 51°13.679 2°55.77 1.9 257 13.9 102450 80
2004-05-18 06:13:14 51°13.679 2°55.762 2.7 264 13.9 102450 80
2004-05-18 06:13:18 51°13.68 2°55.758 2.2 262 13.9 102450 81
2004-05-18 06:13:23 51°13.68 2°55.752 1.9 258 13.9 102450 81
2004-05-18 06:13:28 51°13.68 2°55.748 1.9 264 13.9 102450 81
2004-05-18 06:13:33 51°13.68 2°55.745 2.4 283 13.9 102450 81
2004-05-18 06:13:38 51°13.68 2°55.743 2.2 297 13.9 102450 81
2004-05-18 06:13:43 51°13.681 2°55.742 2.2 278 13.9 102450 81
2004-05-18 06:13:48 51°13.682 2°55.742 2.3 283 13.9 102450 81
2004-05-18 06:13:53 51°13.682 2°55.743 2.9 315 13.9 102450 81
2004-05-18 06:13:58 51°13.684 2°55.744 3.2 312 13.9 102450 81
2004-05-18 06:14:04 51°13.686 2°55.746 2.7 324 13.9 102450 81
2004-05-18 06:14:08 51°13.687 2°55.748 3 327 13.8 102450 81
2004-05-18 06:14:12 51°13.689 2°55.749 2.6 339 13.8 102450 81
2004-05-18 06:14:17 51°13.691 2°55.751 2.7 341 13.9 102450 81
2004-05-18 06:14:23 51°13.695 2°55.753 2.9 349 13.9 102450 81
2004-05-18 06:14:28 51°13.698 2°55.754 2.8 350 13.9 102450 81
2004-05-18 06:14:33 51°13.702 2°55.755 3.6 354 13.9 102450 81
2004-05-18 06:14:38 51°13.706 2°55.755 3.2 353 13.9 102450 81
2004-05-18 06:14:43 51°13.711 2°55.755 4 11 13.9 102450 81
2004-05-18 06:14:48 51°13.715 2°55.753 4 24 13.9 102450 81
2004-05-18 06:14:54 51°13.721 2°55.75 3.7 20 13.9 102450 81
2004-05-18 06:14:58 51°13.725 2°55.747 3.6 12 13.9 102450 81
2004-05-18 06:15:04 51°13.731 2°55.742 3.4 12 13.9 102450 81
2004-05-18 06:15:08 51°13.735 2°55.739 3.5 6 13.9 102450 82
2004-05-18 06:15:13 51°13.74 2°55.734 3.6 20 13.9 102450 82
2004-05-18 06:15:18 51°13.745 2°55.729 3.7 26 13.9 102450 82
2004-05-18 06:15:22 51°13.75 2°55.725 4.3 20 13.9 102450 82
2004-05-18 06:15:28 51°13.757 2°55.718 3.9 10 13.9 102450 82
2004-05-18 06:15:33 51°13.763 2°55.712 3.8 15 13.9 102450 82
2004-05-18 06:15:38 51°13.768 2°55.706 4.8 29 13.9 102450 82
2004-05-18 06:15:44 51°13.775 2°55.699 4.4 21 13.9 102450 82
2004-05-18 06:15:48 51°13.78 2°55.694 3.9 24 13.9 102450 82
2004-05-18 06:15:53 51°13.786 2°55.687 3.8 14 13.9 102450 82
2004-05-18 06:15:58 51°13.791 2°55.68 3.7 14 13.9 102450 82
2004-05-18 06:16:04 51°13.798 2°55.673 3.6 21 13.9 102450 82
2004-05-18 06:16:08 51°13.803 2°55.668 3.3 17 13.9 102450 82
2004-05-18 06:16:13 51°13.808 2°55.661 4.1 17 13.9 102450 82
2004-05-18 06:16:18 51°13.813 2°55.656 4.5 17 13.9 102450 82
2004-05-18 06:16:22 51°13.817 2°55.651 4.4 21 13.9 102450 82
2004-05-18 06:16:28 51°13.824 2°55.645 4.3 21 13.8 102450 82
2004-05-18 06:16:32 51°13.828 2°55.641 4.2 28 13.8 102450 82
2004-05-18 06:16:38 51°13.834 2°55.636 3.8 28 13.8 102450 82
2004-05-18 06:16:42 51°13.838 2°55.632 4.1 24 13.8 102450 82
2004-05-18 06:16:48 51°13.844 2°55.628 4.1 24 13.9 102450 82
2004-05-18 06:16:53 51°13.849 2°55.624 3.5 28 13.9 102450 82
2004-05-18 06:16:57 51°13.853 2°55.622 3.7 28 13.8 102450 82
2004-05-18 06:17:03 51°13.859 2°55.618 3.8 26 13.8 102450 82
2004-05-18 06:17:09 51°13.864 2°55.615 3.6 26 13.8 102450 82
2004-05-18 06:17:13 51°13.868 2°55.613 3.9 23 13.8 102450 82
2004-05-18 06:17:18 51°13.873 2°55.61 3.8 29 13.8 102450 82
2004-05-18 06:17:24 51°13.878 2°55.607 3.7 26 13.8 102450 82
2004-05-18 06:17:28 51°13.882 2°55.605 3.5 29 13.8 102450 82
2004-05-18 06:17:33 51°13.886 2°55.602 3.4 29 13.8 102450 82
2004-05-18 06:17:38 51°13.891 2°55.6 3.2 30 13.8 102450 82
2004-05-18 06:17:43 51°13.896 2°55.597 3 25 13.8 102450 82
2004-05-18 06:17:45 51°13.898 2°55.596 3.2 27 13.8 102450 82
2004-05-18 06:17:53 51°13.905 2°55.592 3.4 29 13.8 102450 82
2004-05-18 06:17:58 51°13.91 2°55.589 3.1 27 13.8 102450 82
2004-05-18 06:18:02 51°13.914 2°55.587 3.1 14 13.8 102450 82
2004-05-18 06:18:08 51°13.92 2°55.584 3 20 13.8 102450 82
2004-05-18 06:18:13 51°13.926 2°55.581 2.9 20 13.8 102450 82
2004-05-18 06:18:18 51°13.931 2°55.578 3 18 13.8 102450 82
2004-05-18 06:18:22 51°13.935 2°55.576 3 19 13.8 102450 82
2004-05-18 06:18:29 51°13.943 2°55.571 3.3 16 13.8 102450 82
2004-05-18 06:18:33 51°13.947 2°55.569 3.7 21 13.8 102450 82
2004-05-18 06:18:38 51°13.953 2°55.566 3.5 20 13.8 102450 83
2004-05-18 06:18:44 51°13.959 2°55.562 3.3 14 13.8 102450 83
2004-05-18 06:18:48 51°13.964 2°55.56 3.4 17 13.8 102450 83
2004-05-18 06:18:53 51°13.969 2°55.557 4 17 13.8 102450 83
2004-05-18 06:18:58 51°13.975 2°55.554 3.7 23 13.8 102450 83
2004-05-18 06:19:04 51°13.982 2°55.55 3.7 23 13.8 102450 83
2004-05-18 06:19:08 51°13.986 2°55.547 3.5 15 13.8 102450 83
2004-05-18 06:19:12 51°13.991 2°55.545 3.2 18 13.8 102450 83
2004-05-18 06:19:17 51°13.996 2°55.541 3.1 19 13.8 102450 83
2004-05-18 06:19:23 51°14.003 2°55.536 4 14 13.8 102450 83
2004-05-18 06:19:28 51°14.009 2°55.53 4.3 24 13.8 102450 83
2004-05-18 06:19:33 51°14.014 2°55.525 4.3 24 13.8 102450 83
2004-05-18 06:19:38 51°14.02 2°55.52 4.4 25 13.8 102450 83
2004-05-18 06:19:44 51°14.027 2°55.513 4.1 16 13.8 102450 83
2004-05-18 06:19:45 51°14.028 2°55.512 4.5 23 13.8 102450 83
2004-05-18 06:19:53 51°14.037 2°55.503 4.7 26 13.8 102450 83
2004-05-18 06:19:58 51°14.044 2°55.497 4.9 24 13.8 102450 83
2004-05-18 06:20:02 51°14.049 2°55.492 5 25 13.8 102450 83
2004-05-18 06:20:08 51°14.058 2°55.484 5 28 13.8 102450 83
2004-05-18 06:20:13 51°14.066 2°55.477 5.3 17 13.8 102450 83
2004-05-18 06:20:18 51°14.075 2°55.469 5.3 21 13.8 102450 83
2004-05-18 06:20:22 51°14.082 2°55.462 5.5 17 13.8 102450 83
2004-05-18 06:20:28 51°14.095 2°55.453 5.5 16 13.8 102450 82
2004-05-18 06:20:33 51°14.107 2°55.444 6.8 20 13.8 102450 82
2004-05-18 06:20:38 51°14.118 2°55.434 6.8 20 13.8 102450 82
2004-05-18 06:20:44 51°14.133 2°55.421 6.4 16 13.8 102450 82
2004-05-18 06:20:48 51°14.143 2°55.412 6.5 14 13.7 102450 83
2004-05-18 06:20:53 51°14.155 2°55.401 6.9 18 13.7 102450 83
2004-05-18 06:20:58 51°14.168 2°55.389 7.3 18 13.8 102450 83
2004-05-18 06:21:04 51°14.183 2°55.374 7.1 18 13.8 102450 83
2004-05-18 06:21:08 51°14.193 2°55.362 6.8 15 13.8 102450 83
2004-05-18 06:21:13 51°14.205 2°55.348 7.4 25 13.8 102450 83
2004-05-18 06:21:18 51°14.217 2°55.334 7.3 23 13.8 102450 83
2004-05-18 06:21:23 51°14.229 2°55.318 6.7 17 13.8 102450 83
2004-05-18 06:21:28 51°14.241 2°55.303 6.8 24 13.8 102450 83
2004-05-18 06:21:34 51°14.256 2°55.284 6.7 19 13.8 102450 83
2004-05-18 06:21:38 51°14.265 2°55.271 7 23 13.8 102450 83
2004-05-18 06:21:43 51°14.276 2°55.253 6.8 23 13.8 102450 83
2004-05-18 06:21:45 51°14.28 2°55.246 6.7 24 13.8 102440 83
2004-05-18 06:21:53 51°14.297 2°55.216 6.2 27 13.8 102440 83
2004-05-18 06:21:58 51°14.307 2°55.196 6.5 20 13.7 102450 83
2004-05-18 06:22:02 51°14.314 2°55.18 6.4 20 13.7 102450 83
2004-05-18 06:22:08 51°14.326 2°55.154 6.4 21 13.8 102450 83
2004-05-18 06:22:13 51°14.335 2°55.132 6.4 19 13.8 102450 83
2004-05-18 06:22:18 51°14.345 2°55.11 6.5 13 13.8 102450 83
2004-05-18 06:22:22 51°14.352 2°55.091 7 28 13.8 102450 83
2004-05-18 06:22:29 51°14.364 2°55.058 7.1 27 13.8 102450 83
2004-05-18 06:22:33 51°14.371 2°55.039 7.2 27 13.8 102450 83
2004-05-18 06:22:37 51°14.378 2°55.019 7.1 26 13.8 102450 83
2004-05-18 06:22:42 51°14.386 2°54.994 7.1 25 13.8 102450 83
2004-05-18 06:22:48 51°14.397 2°54.964 7.1 26 13.8 102440 83
2004-05-18 06:22:53 51°14.405 2°54.938 6.7 24 13.8 102440 83
2004-05-18 06:22:58 51°14.412 2°54.912 6.7 27 13.7 102440 83
2004-05-18 06:23:08 51°14.421 2°54.855 6.2 24 13.7 102440 83
2004-05-18 06:23:16 51°14.424 2°54.807 6 23 13.7 102440 83
2004-05-18 06:23:20 51°14.424 2°54.783 6 21 13.7 102440 83
2004-05-18 06:23:24 51°14.423 2°54.759 6.1 22 13.7 102440 83
2004-05-18 06:23:30 51°14.421 2°54.723 5.9 22 13.7 102440 83
2004-05-18 06:23:35 51°14.419 2°54.693 6.2 21 13.7 102440 83
2004-05-18 06:23:40 51°14.417 2°54.662 6.1 22 13.7 102440 83
2004-05-18 06:23:45 51°14.414 2°54.632 6.2 18 13.7 102440 83
2004-05-18 06:23:49 51°14.411 2°54.607 6.1 22 13.7 102440 83
2004-05-18 06:23:55 51°14.407 2°54.571 6.2 20 13.7 102450 83
2004-05-18 06:24:00 51°14.402 2°54.54 6.2 18 13.7 102450 83
2004-05-18 06:24:05 51°14.398 2°54.51 6.2 21 13.7 102450 83
2004-05-18 06:24:10 51°14.394 2°54.48 6 21 13.7 102450 83
2004-05-18 06:24:15 51°14.39 2°54.449 6 19 13.7 102440 84
2004-05-18 06:24:20 51°14.386 2°54.419 6 21 13.7 102440 84
2004-05-18 06:24:25 51°14.382 2°54.389 5.9 19 13.7 102450 83
2004-05-18 06:24:30 51°14.379 2°54.358 6.2 20 13.7 102450 83
2004-05-18 06:24:33 51°14.377 2°54.34 6.2 19 13.7 102450 83
2004-05-18 06:24:40 51°14.373 2°54.297 6 21 13.7 102450 83
2004-05-18 06:24:45 51°14.369 2°54.267 6.2 15 13.7 102450 84
2004-05-18 06:24:50 51°14.364 2°54.237 5.8 19 13.7 102450 84
2004-05-18 06:24:56 51°14.356 2°54.203 5.9 19 13.7 102450 84
2004-05-18 06:25:01 51°14.348 2°54.174 5.9 17 13.7 102450 84
2004-05-18 06:25:04 51°14.342 2°54.157 5.8 16 13.7 102450 83
2004-05-18 06:25:10 51°14.331 2°54.124 6.1 15 13.7 102450 83
2004-05-18 06:25:14 51°14.323 2°54.103 5.9 17 13.7 102450 83
2004-05-18 06:25:21 51°14.309 2°54.066 6.1 17 13.7 102450 83
2004-05-18 06:25:24 51°14.303 2°54.05 6.2 18 13.7 102450 83
2004-05-18 06:25:30 51°14.29 2°54.017 6.1 19 13.7 102450 83
2004-05-18 06:25:34 51°14.282 2°53.996 6.4 19 13.7 102450 84
2004-05-18 06:25:40 51°14.27 2°53.963 6.2 16 13.7 102450 84
2004-05-18 06:25:45 51°14.26 2°53.935 6.1 16 13.7 102450 84
2004-05-18 06:25:48 51°14.255 2°53.919 6.1 14 13.7 102450 84
2004-05-18 06:25:54 51°14.243 2°53.885 6.1 14 13.7 102450 84
2004-05-18 06:26:01 51°14.23 2°53.846 6.3 17 13.7 102450 84
2004-05-18 06:26:05 51°14.223 2°53.824 6.4 16 13.6 102450 84
2004-05-18 06:26:10 51°14.213 2°53.796 6.3 18 13.6 102450 84
2004-05-18 06:26:15 51°14.203 2°53.768 6 16 13.7 102450 84
2004-05-18 06:26:20 51°14.193 2°53.741 5.9 15 13.7 102450 84
2004-05-18 06:26:25 51°14.183 2°53.713 6.2 16 13.6 102450 84
2004-05-18 06:26:30 51°14.173 2°53.686 6.4 20 13.6 102450 84
2004-05-18 06:26:36 51°14.161 2°53.653 6.4 18 13.6 102450 84
2004-05-18 06:26:40 51°14.152 2°53.631 6.4 19 13.6 102450 84
2004-05-18 06:26:45 51°14.142 2°53.604 6.4 17 13.6 102460 84
2004-05-18 06:26:50 51°14.131 2°53.577 6.4 17 13.6 102460 84
2004-05-18 06:26:56 51°14.118 2°53.544 6.6 18 13.6 102450 84
2004-05-18 06:27:00 51°14.11 2°53.522 6.7 17 13.6 102450 84
2004-05-18 06:27:05 51°14.1 2°53.493 6.7 17 13.6 102450 84
2004-05-18 06:27:10 51°14.091 2°53.465 6.8 18 13.6 102450 84
2004-05-18 06:27:15 51°14.082 2°53.436 6.6 18 13.6 102450 84
2004-05-18 06:27:20 51°14.074 2°53.406 6.6 17 13.6 102450 84
2004-05-18 06:27:25 51°14.067 2°53.376 6.6 19 13.6 102450 84
2004-05-18 06:27:28 51°14.063 2°53.358 6.7 21 13.6 102450 84
2004-05-18 06:27:36 51°14.051 2°53.31 6.5 18 13.7 102450 84
2004-05-18 06:27:39 51°14.047 2°53.292 6.3 19 13.7 102450 84
2004-05-18 06:27:44 51°14.04 2°53.262 6.5 20 13.6 102460 84
2004-05-18 06:27:49 51°14.033 2°53.232 6.1 17 13.6 102460 84
2004-05-18 06:27:54 51°14.026 2°53.202 6.2 19 13.6 102450 84
2004-05-18 06:28:00 51°14.016 2°53.167 6.6 18 13.6 102450 84
2004-05-18 06:28:05 51°14.006 2°53.138 6.3 19 13.6 102450 84
2004-05-18 06:28:10 51°13.996 2°53.11 6.5 19 13.6 102450 84
2004-05-18 06:28:15 51°13.986 2°53.082 6.2 19 13.6 102450 84
2004-05-18 06:28:20 51°13.976 2°53.054 6.1 18 13.6 102450 84
2004-05-18 06:28:26 51°13.964 2°53.02 6.3 17 13.6 102450 84
2004-05-18 06:28:29 51°13.958 2°53.003 6.5 19 13.6 102450 84
2004-05-18 06:28:34 51°13.948 2°52.975 6.6 19 13.6 102450 84
2004-05-18 06:28:40 51°13.936 2°52.94 6.6 21 13.6 102450 84
2004-05-18 06:28:45 51°13.928 2°52.911 6.4 19 13.6 102450 84
2004-05-18 06:28:48 51°13.923 2°52.893 6.5 19 13.6 102450 84
2004-05-18 06:28:56 51°13.909 2°52.845 6.3 19 13.6 102450 84
2004-05-18 06:29:00 51°13.903 2°52.821 6.3 18 13.6 102450 84
2004-05-18 06:29:05 51°13.894 2°52.792 6.3 19 13.6 102450 84
2004-05-18 06:29:10 51°13.886 2°52.762 6.6 20 13.6 102450 84
2004-05-18 06:29:16 51°13.876 2°52.726 6.5 20 13.6 102460 84
2004-05-18 06:29:21 51°13.867 2°52.697 6.6 20 13.6 102460 84
2004-05-18 06:29:25 51°13.859 2°52.673 6.4 20 13.6 102460 84
2004-05-18 06:29:30 51°13.85 2°52.644 6.2 19 13.6 102460 84
2004-05-18 06:29:36 51°13.838 2°52.61 6.3 20 13.6 102450 84
2004-05-18 06:29:40 51°13.83 2°52.587 6.2 20 13.6 102450 84
2004-05-18 06:29:45 51°13.82 2°52.557 6.3 22 13.6 102460 83
2004-05-18 06:29:48 51°13.815 2°52.54 6.2 21 13.6 102460 83
2004-05-18 06:29:56 51°13.799 2°52.493 6.3 23 13.6 102450 83
2004-05-18 06:30:00 51°13.792 2°52.47 6.3 19 13.6 102450 83
2004-05-18 06:30:05 51°13.783 2°52.44 6 17 13.6 102460 83
2004-05-18 06:30:10 51°13.774 2°52.41 6.4 21 13.6 102460 83
2004-05-18 06:30:16 51°13.764 2°52.374 6.2 19 13.6 102450 83
2004-05-18 06:30:21 51°13.755 2°52.344 6.4 22 13.6 102450 83
2004-05-18 06:30:25 51°13.748 2°52.321 6 20 13.6 102450 83
2004-05-18 06:30:30 51°13.737 2°52.292 6.2 18 13.6 102450 83
2004-05-18 06:30:36 51°13.725 2°52.258 6.4 22 13.6 102450 83
2004-05-18 06:30:41 51°13.714 2°52.23 6.4 21 13.6 102450 83
2004-05-18 06:30:45 51°13.705 2°52.207 6.1 20 13.6 102450 83
2004-05-18 06:30:48 51°13.698 2°52.19 5.9 18 13.6 102450 83
2004-05-18 06:30:56 51°13.68 2°52.146 6.2 22 13.6 102450 83
2004-05-18 06:31:00 51°13.671 2°52.124 6.4 22 13.6 102450 83
2004-05-18 06:31:05 51°13.66 2°52.095 6.2 20 13.6 102460 83
2004-05-18 06:31:10 51°13.649 2°52.067 6.2 20 13.6 102460 83
2004-05-18 06:31:16 51°13.636 2°52.033 6.2 18 13.6 102450 83
2004-05-18 06:31:21 51°13.626 2°52.005 6.3 19 13.6 102450 83
2004-05-18 06:31:25 51°13.617 2°51.981 5.9 17 13.6 102450 83
2004-05-18 06:31:30 51°13.607 2°51.953 6.1 20 13.6 102450 83
2004-05-18 06:31:34 51°13.599 2°51.93 6.4 16 13.6 102460 83
2004-05-18 06:31:41 51°13.585 2°51.889 6.5 20 13.6 102460 83
2004-05-18 06:31:45 51°13.576 2°51.866 6.1 18 13.6 102460 83
2004-05-18 06:31:50 51°13.566 2°51.838 6.1 19 13.6 102460 83
2004-05-18 06:31:56 51°13.553 2°51.804 6.2 17 13.6 102460 83
2004-05-18 06:32:01 51°13.542 2°51.775 6.2 18 13.6 102460 83
2004-05-18 06:32:05 51°13.533 2°51.753 6.2 18 13.6 102450 83
2004-05-18 06:32:10 51°13.522 2°51.725 6.2 19 13.6 102450 83
2004-05-18 06:32:14 51°13.514 2°51.702 6.1 19 13.6 102460 83
2004-05-18 06:32:20 51°13.501 2°51.668 6.1 17 13.6 102460 83
2004-05-18 06:32:25 51°13.49 2°51.64 6.1 18 13.6 102450 83
2004-05-18 06:32:30 51°13.479 2°51.611 5.8 16 13.6 102450 83
2004-05-18 06:32:36 51°13.467 2°51.577 5.9 19 13.6 102450 83
2004-05-18 06:32:40 51°13.458 2°51.554 6 19 13.6 102450 83
2004-05-18 06:32:45 51°13.448 2°51.525 6 17 13.6 102450 83
2004-05-18 06:32:48 51°13.441 2°51.508 5.9 17 13.6 102450 83
2004-05-18 06:32:56 51°13.425 2°51.462 5.8 16 13.6 102450 83
2004-05-18 06:33:00 51°13.416 2°51.44 6.1 16 13.6 102450 83
2004-05-18 06:33:05 51°13.405 2°51.411 5.8 15 13.6 102450 83
2004-05-18 06:33:10 51°13.394 2°51.383 6.1 13 13.6 102450 83
2004-05-18 06:33:16 51°13.381 2°51.349 5.9 15 13.6 102450 83
2004-05-18 06:33:21 51°13.369 2°51.321 6.2 17 13.6 102450 83
2004-05-18 06:33:25 51°13.361 2°51.299 5.8 13 13.6 102450 83
2004-05-18 06:33:30 51°13.349 2°51.271 6.1 15 13.6 102450 83
2004-05-18 06:33:34 51°13.34 2°51.248 5.8 13 13.6 102450 83
2004-05-18 06:33:41 51°13.325 2°51.208 5.9 15 13.6 102450 83
2004-05-18 06:33:45 51°13.317 2°51.186 5.9 17 13.6 102450 83
2004-05-18 06:33:50 51°13.306 2°51.157 5.9 17 13.6 102450 83
2004-05-18 06:33:54 51°13.298 2°51.134 6 16 13.6 102450 83
2004-05-18 06:34:01 51°13.283 2°51.094 5.8 17 13.6 102450 83
2004-05-18 06:34:05 51°13.275 2°51.071 5.8 16 13.6 102450 83
2004-05-18 06:34:10 51°13.264 2°51.042 5.8 16 13.6 102450 83
2004-05-18 06:34:14 51°13.255 2°51.02 5.9 16 13.6 102450 83
2004-05-18 06:34:20 51°13.242 2°50.986 5.5 17 13.6 102450 83
2004-05-18 06:34:25 51°13.231 2°50.958 5.7 15 13.6 102450 84
2004-05-18 06:34:30 51°13.22 2°50.93 5.5 15 13.6 102450 84
2004-05-18 06:34:36 51°13.206 2°50.896 5.4 17 13.6 102450 84
2004-05-18 06:34:41 51°13.195 2°50.868 5.6 15 13.6 102450 84
2004-05-18 06:34:45 51°13.185 2°50.846 5.6 13 13.6 102450 84
2004-05-18 06:34:48 51°13.179 2°50.829 5.4 16 13.6 102450 84
2004-05-18 06:34:56 51°13.161 2°50.784 5.6 16 13.6 102450 84
2004-05-18 06:35:00 51°13.152 2°50.761 5.3 16 13.6 102450 84
2004-05-18 06:35:05 51°13.141 2°50.732 5.7 20 13.5 102450 84
2004-05-18 06:35:10 51°13.131 2°50.703 5.7 16 13.5 102450 84
2004-05-18 06:35:16 51°13.118 2°50.669 5.5 19 13.5 102450 84
2004-05-18 06:35:21 51°13.107 2°50.64 5.7 17 13.5 102450 84
2004-05-18 06:35:25 51°13.098 2°50.616 5.7 18 13.5 102450 84
2004-05-18 06:35:30 51°13.088 2°50.587 5.5 16 13.5 102450 84
2004-05-18 06:35:34 51°13.079 2°50.564 5.7 20 13.5 102450 84
2004-05-18 06:35:40 51°13.065 2°50.53 5.6 19 13.5 102450 84
2004-05-18 06:35:50 51°13.043 2°50.472 3.3 18 13.5 102450 84
2004-05-18 06:35:55 51°13.032 2°50.442 5.9 20 13.5 102450 84
2004-05-18 06:36:00 51°13.021 2°50.413 6 19 13.5 102450 84
2004-05-18 06:36:05 51°13.011 2°50.383 5.9 21 13.5 102450 84
2004-05-18 06:36:10 51°13 2°50.354 5.9 22 13.5 102450 84
2004-05-18 06:36:14 51°12.992 2°50.33 6.1 20 13.5 102450 84
2004-05-18 06:36:20 51°12.98 2°50.294 6 20 13.5 102450 84
2004-05-18 06:36:24 51°12.971 2°50.27 5.9 21 13.5 102450 84
2004-05-18 06:36:30 51°12.959 2°50.235 6.3 22 13.5 102450 84
2004-05-18 06:36:35 51°12.948 2°50.205 6.3 22 13.5 102450 84
2004-05-18 06:36:41 51°12.935 2°50.17 6.5 20 13.5 102450 84
2004-05-18 06:36:45 51°12.926 2°50.147 6.3 20 13.5 102450 84
2004-05-18 06:36:50 51°12.915 2°50.117 6.2 22 13.5 102450 84
2004-05-18 06:36:56 51°12.902 2°50.082 6 20 13.5 102450 84
2004-05-18 06:37:01 51°12.891 2°50.053 6.4 21 13.5 102450 84
2004-05-18 06:37:05 51°12.882 2°50.029 6.2 21 13.5 102450 84
2004-05-18 06:37:08 51°12.876 2°50.012 5.9 22 13.5 102450 84
2004-05-18 06:37:13 51°12.866 2°49.982 6 20 13.5 102450 84
2004-05-18 06:37:21 51°12.849 2°49.934 6.2 21 13.5 102450 84
2004-05-18 06:37:25 51°12.841 2°49.911 5.9 21 13.5 102450 84
2004-05-18 06:37:30 51°12.83 2°49.881 5.9 20 13.5 102450 84
2004-05-18 06:37:36 51°12.818 2°49.846 6 22 13.5 102450 84
2004-05-18 06:37:41 51°12.807 2°49.816 5.8 20 13.5 102450 84
2004-05-18 06:37:44 51°12.801 2°49.799 5.6 20 13.5 102450 84
2004-05-18 06:37:50 51°12.787 2°49.764 5.7 22 13.5 102450 84
2004-05-18 06:37:55 51°12.776 2°49.734 5.6 19 13.5 102450 84
2004-05-18 06:38:00 51°12.765 2°49.705 5.8 19 13.5 102450 84
2004-05-18 06:38:05 51°12.755 2°49.676 5.9 21 13.5 102450 84
2004-05-18 06:38:10 51°12.744 2°49.647 5.9 17 13.5 102450 84
2004-05-18 06:38:16 51°12.731 2°49.611 6 19 13.5 102450 84
2004-05-18 06:38:20 51°12.723 2°49.588 6 17 13.5 102450 84
2004-05-18 06:38:25 51°12.712 2°49.558 5.6 20 13.5 102450 84
2004-05-18 06:38:28 51°12.706 2°49.541 5.9 17 13.5 102450 84
2004-05-18 06:38:36 51°12.689 2°49.494 5.6 18 13.5 102450 84
2004-05-18 06:38:41 51°12.678 2°49.465 5.3 18 13.5 102450 84
2004-05-18 06:38:45 51°12.669 2°49.441 5.5 16 13.5 102450 84
2004-05-18 06:38:50 51°12.658 2°49.413 5.5 17 13.5 102450 84
2004-05-18 06:38:56 51°12.645 2°49.378 5.5 14 13.5 102450 84
2004-05-18 06:39:00 51°12.636 2°49.354 5.3 14 13.5 102450 84
2004-05-18 06:39:05 51°12.626 2°49.325 5.3 14 13.5 102450 84
2004-05-18 06:39:10 51°12.615 2°49.296 5.6 12 13.5 102450 84
2004-05-18 06:39:14 51°12.607 2°49.273 5.7 12 13.5 102450 84
2004-05-18 06:39:21 51°12.592 2°49.232 5.6 14 13.5 102450 84
2004-05-18 06:39:25 51°12.584 2°49.208 5.7 14 13.5 102450 84
2004-05-18 06:39:30 51°12.573 2°49.179 5.4 14 13.5 102450 84
2004-05-18 06:39:36 51°12.561 2°49.144 5.4 12 13.5 102450 84
2004-05-18 06:39:41 51°12.55 2°49.115 5.7 11 13.5 102450 84
2004-05-18 06:39:44 51°12.543 2°49.098 5.6 11 13.5 102450 84
2004-05-18 06:39:49 51°12.532 2°49.069 5.7 16 13.5 102450 84
2004-05-18 06:39:55 51°12.519 2°49.034 5.6 13 13.5 102450 84
2004-05-18 06:40:00 51°12.508 2°49.005 5.5 14 13.5 102450 84
2004-05-18 06:40:05 51°12.498 2°48.976 5.8 14 13.5 102450 84
2004-05-18 06:40:10 51°12.487 2°48.947 5.5 15 13.5 102450 84
2004-05-18 06:40:16 51°12.474 2°48.912 5.4 15 13.5 102450 84
2004-05-18 06:40:20 51°12.466 2°48.888 5.6 14 13.5 102450 84
2004-05-18 06:40:24 51°12.457 2°48.865 5.7 11 13.5 102450 84
2004-05-18 06:40:29 51°12.446 2°48.836 5.7 14 13.5 102450 84
2004-05-18 06:40:34 51°12.435 2°48.807 5.6 14 13.5 102450 84
2004-05-18 06:40:41 51°12.42 2°48.766 5.6 12 13.5 102450 84
2004-05-18 06:40:45 51°12.412 2°48.743 5.9 16 13.5 102450 84
2004-05-18 06:40:50 51°12.401 2°48.713 6 14 13.5 102450 84
2004-05-18 06:40:56 51°12.388 2°48.678 5.8 14 13.5 102450 84
2004-05-18 06:41:00 51°12.38 2°48.655 5.7 15 13.5 102450 84
2004-05-18 06:41:05 51°12.369 2°48.625 5.7 16 13.5 102450 84
2004-05-18 06:41:10 51°12.358 2°48.596 5.5 14 13.5 102450 84
2004-05-18 06:41:16 51°12.345 2°48.561 5.8 12 13.5 102450 84
2004-05-18 06:41:20 51°12.337 2°48.538 5.7 14 13.5 102450 84
2004-05-18 06:41:25 51°12.326 2°48.509 5.8 12 13.5 102450 84
2004-05-18 06:41:30 51°12.315 2°48.479 6 13 13.5 102450 84
2004-05-18 06:41:36 51°12.302 2°48.444 5.9 14 13.4 102450 84
2004-05-18 06:41:41 51°12.291 2°48.415 5.6 15 13.4 102450 84
2004-05-18 06:41:46 51°12.281 2°48.385 6 14 13.5 102450 84
2004-05-18 06:41:50 51°12.273 2°48.361 5.7 16 13.5 102450 84
2004-05-18 06:41:55 51°12.263 2°48.331 5.7 16 13.5 102450 84
2004-05-18 06:42:00 51°12.254 2°48.3 5.9 18 13.5 102450 84
2004-05-18 06:42:05 51°12.245 2°48.269 6 18 13.5 102450 84
2004-05-18 06:42:10 51°12.236 2°48.239 5.8 18 13.5 102450 84
2004-05-18 06:42:16 51°12.225 2°48.202 5.9 17 13.5 102460 84
2004-05-18 06:42:21 51°12.215 2°48.171 6.1 16 13.5 102460 84
2004-05-18 06:42:25 51°12.208 2°48.147 6.3 13 13.4 102450 84
2004-05-18 06:42:28 51°12.202 2°48.129 6 19 13.4 102450 84
2004-05-18 06:42:36 51°12.187 2°48.08 5.6 13 13.4 102450 84
2004-05-18 06:42:41 51°12.177 2°48.049 6 13 13.4 102450 84
2004-05-18 06:42:45 51°12.169 2°48.025 5.7 16 13.5 102450 84
2004-05-18 06:42:50 51°12.159 2°47.994 5.9 14 13.5 102450 84
2004-05-18 06:42:56 51°12.148 2°47.958 5.9 15 13.5 102450 84
2004-05-18 06:43:00 51°12.141 2°47.933 5.8 16 13.5 102450 84
2004-05-18 06:43:05 51°12.131 2°47.902 6.1 14 13.5 102450 84
2004-05-18 06:43:10 51°12.122 2°47.872 6 14 13.5 102450 84
2004-05-18 06:43:14 51°12.114 2°47.847 6.6 16 13.5 102460 84
2004-05-18 06:43:21 51°12.1 2°47.804 6.2 16 13.5 102460 84
2004-05-18 06:43:25 51°12.093 2°47.78 6 16 13.5 102450 84
2004-05-18 06:43:30 51°12.083 2°47.749 6.1 16 13.5 102450 84
2004-05-18 06:43:36 51°12.071 2°47.713 6.3 14 13.5 102450 84
2004-05-18 06:43:40 51°12.063 2°47.688 6.5 16 13.5 102450 84
2004-05-18 06:43:44 51°12.056 2°47.664 6.1 17 13.5 102450 84
2004-05-18 06:43:49 51°12.046 2°47.633 6.4 16 13.5 102450 84
2004-05-18 06:43:55 51°12.035 2°47.596 6.4 17 13.4 102450 84
2004-05-18 06:44:00 51°12.025 2°47.565 6.3 18 13.4 102450 84
2004-05-18 06:44:05 51°12.016 2°47.535 6.2 17 13.4 102460 84
2004-05-18 06:44:10 51°12.006 2°47.504 6.3 15 13.4 102460 84
2004-05-18 06:44:15 51°11.996 2°47.474 6.5 18 13.5 102450 84
2004-05-18 06:44:21 51°11.985 2°47.437 6 18 13.5 102450 84
2004-05-18 06:44:24 51°11.979 2°47.418 6.4 17 13.5 102460 84
2004-05-18 06:44:30 51°11.967 2°47.382 6.3 18 13.5 102460 84
2004-05-18 06:44:36 51°11.956 2°47.345 6.3 19 13.5 102460 84
2004-05-18 06:44:40 51°11.949 2°47.32 6.2 18 13.5 102460 84
2004-05-18 06:44:45 51°11.939 2°47.289 6.2 19 13.5 102460 84
2004-05-18 06:44:50 51°11.929 2°47.259 6 22 13.5 102460 84
2004-05-18 06:44:56 51°11.918 2°47.222 6 21 13.4 102460 84
2004-05-18 06:45:00 51°11.91 2°47.198 6 17 13.4 102460 84
2004-05-18 06:45:04 51°11.902 2°47.174 6 19 13.4 102460 84
2004-05-18 06:45:10 51°11.891 2°47.137 5.9 18 13.4 102460 84
2004-05-18 06:45:16 51°11.879 2°47.1 5.8 19 13.5 102460 84
2004-05-18 06:45:20 51°11.872 2°47.076 6 19 13.5 102460 84
2004-05-18 06:45:25 51°11.862 2°47.045 6.1 20 13.5 102450 84
2004-05-18 06:45:30 51°11.853 2°47.014 6.1 18 13.5 102450 84
2004-05-18 06:45:36 51°11.841 2°46.977 6.4 21 13.4 102460 84
2004-05-18 06:45:39 51°11.835 2°46.959 6.3 22 13.4 102460 84
2004-05-18 06:45:45 51°11.823 2°46.923 6.2 22 13.5 102460 84
2004-05-18 06:45:50 51°11.813 2°46.893 6 21 13.5 102460 84
2004-05-18 06:45:56 51°11.802 2°46.856 5.7 21 13.5 102460 84
2004-05-18 06:46:00 51°11.794 2°46.831 6.2 21 13.5 102460 84
2004-05-18 06:46:05 51°11.785 2°46.8 6.3 20 13.4 102450 84
2004-05-18 06:46:09 51°11.777 2°46.776 6.1 21 13.4 102450 84
2004-05-18 06:46:15 51°11.766 2°46.739 5.9 21 13.4 102460 84
2004-05-18 06:46:21 51°11.755 2°46.701 5.6 22 13.4 102460 84
2004-05-18 06:46:25 51°11.748 2°46.677 5.9 22 13.5 102460 84
2004-05-18 06:46:30 51°11.738 2°46.646 6.1 22 13.5 102460 84
2004-05-18 06:46:34 51°11.731 2°46.622 6 21 13.5 102460 84
2004-05-18 06:46:41 51°11.717 2°46.578 5.9 20 13.5 102460 84
2004-05-18 06:46:45 51°11.709 2°46.554 6.2 19 13.5 102460 84
2004-05-18 06:46:50 51°11.7 2°46.524 6.1 20 13.5 102460 84
2004-05-18 06:46:55 51°11.69 2°46.493 5.9 22 13.4 102460 84
2004-05-18 06:47:00 51°11.68 2°46.462 6.1 21 13.4 102460 84
2004-05-18 06:47:05 51°11.671 2°46.431 5.9 22 13.5 102460 84
2004-05-18 06:47:10 51°11.663 2°46.4 6.3 22 13.5 102460 84
2004-05-18 06:47:14 51°11.656 2°46.374 6.3 23 13.5 102460 84
2004-05-18 06:47:21 51°11.645 2°46.33 5.9 21 13.5 102460 84
2004-05-18 06:47:24 51°11.641 2°46.311 5.8 21 13.5 102460 84
2004-05-18 06:47:29 51°11.633 2°46.279 6.2 21 13.5 102460 84
2004-05-18 06:47:33 51°11.627 2°46.254 6.2 24 13.5 102460 84
2004-05-18 06:47:40 51°11.616 2°46.209 6.2 21 13.5 102460 84
2004-05-18 06:47:45 51°11.608 2°46.177 6.3 24 13.5 102460 84
2004-05-18 06:47:50 51°11.6 2°46.145 6.1 21 13.5 102460 84
2004-05-18 06:47:56 51°11.59 2°46.108 6.2 22 13.5 102460 84
2004-05-18 06:48:01 51°11.581 2°46.076 6.2 23 13.5 102460 84
2004-05-18 06:48:05 51°11.574 2°46.051 6.2 22 13.5 102460 84
2004-05-18 06:48:10 51°11.566 2°46.02 6 22 13.5 102460 84
2004-05-18 06:48:15 51°11.557 2°45.989 6.1 21 13.5 102460 84
2004-05-18 06:48:20 51°11.549 2°45.958 6.3 24 13.5 102460 84
2004-05-18 06:48:24 51°11.542 2°45.932 6.2 22 13.5 102460 84
2004-05-18 06:48:28 51°11.535 2°45.907 6.1 23 13.5 102460 84
2004-05-18 06:48:36 51°11.522 2°45.857 6.4 22 13.5 102460 84
2004-05-18 06:48:41 51°11.514 2°45.825 6.2 25 13.5 102460 84
2004-05-18 06:48:45 51°11.507 2°45.8 6.3 24 13.5 102460 84
2004-05-18 06:48:48 51°11.502 2°45.781 6 24 13.5 102460 84
2004-05-18 06:48:54 51°11.492 2°45.744 6 23 13.5 102460 84
2004-05-18 06:49:00 51°11.482 2°45.706 6.2 23 13.5 102460 84
2004-05-18 06:49:05 51°11.474 2°45.675 6.2 22 13.5 102460 84
2004-05-18 06:49:10 51°11.465 2°45.643 6.2 24 13.5 102460 84
2004-05-18 06:49:15 51°11.457 2°45.612 6 22 13.5 102460 84
2004-05-18 06:49:21 51°11.447 2°45.574 6.3 24 13.5 102460 84
2004-05-18 06:49:25 51°11.44 2°45.549 6.2 23 13.5 102460 84
2004-05-18 06:49:30 51°11.432 2°45.518 6 24 13.5 102460 84
2004-05-18 06:49:36 51°11.421 2°45.48 6 24 13.5 102460 84
2004-05-18 06:49:40 51°11.415 2°45.455 6 23 13.5 102460 84
2004-05-18 06:49:45 51°11.406 2°45.424 6 24 13.5 102460 84
2004-05-18 06:49:50 51°11.398 2°45.393 6.1 26 13.5 102460 84
2004-05-18 06:49:54 51°11.391 2°45.367 6.4 26 13.5 102460 84
2004-05-18 06:50:00 51°11.382 2°45.33 6 25 13.5 102460 84
2004-05-18 06:50:05 51°11.373 2°45.298 6.2 27 13.5 102460 84
2004-05-18 06:50:10 51°11.365 2°45.267 6.3 21 13.5 102460 84
2004-05-18 06:50:15 51°11.357 2°45.236 6.3 26 13.5 102460 84
2004-05-18 06:50:21 51°11.346 2°45.198 6.4 26 13.5 102460 84
2004-05-18 06:50:26 51°11.338 2°45.167 6.4 24 13.5 102460 84
2004-05-18 06:50:30 51°11.331 2°45.141 6.1 24 13.5 102460 84
2004-05-18 06:50:34 51°11.325 2°45.116 6.3 23 13.5 102460 84
2004-05-18 06:50:40 51°11.315 2°45.079 6.1 23 13.5 102460 84
2004-05-18 06:50:45 51°11.307 2°45.047 6.3 24 13.5 102460 84
2004-05-18 06:50:50 51°11.298 2°45.016 6.3 27 13.5 102460 84
2004-05-18 06:50:55 51°11.29 2°44.984 6.7 26 13.5 102460 84
2004-05-18 06:51:00 51°11.282 2°44.953 6.7 24 13.5 102460 84
2004-05-18 06:51:05 51°11.274 2°44.922 6.3 27 13.6 102460 84
2004-05-18 06:51:10 51°11.265 2°44.89 6.6 25 13.6 102460 84
2004-05-18 06:51:15 51°11.257 2°44.859 6.2 27 13.5 102460 84
2004-05-18 06:51:20 51°11.249 2°44.827 6.2 27 13.5 102460 84
2004-05-18 06:51:25 51°11.24 2°44.796 6.4 22 13.5 102460 84
2004-05-18 06:51:30 51°11.232 2°44.765 6.8 28 13.5 102460 84
2004-05-18 06:51:36 51°11.222 2°44.727 6.5 26 13.5 102460 84
2004-05-18 06:51:37 51°11.22 2°44.721 6.3 28 13.5 102460 84
2004-05-18 06:51:45 51°11.207 2°44.67 6.4 24 13.5 102460 84
2004-05-18 06:51:50 51°11.199 2°44.639 6.3 25 13.5 102460 84
2004-05-18 06:51:54 51°11.192 2°44.614 6.5 26 13.5 102460 84
2004-05-18 06:52:01 51°11.181 2°44.57 6.5 26 13.5 102460 84
2004-05-18 06:52:04 51°11.176 2°44.551 6.5 26 13.5 102460 84
2004-05-18 06:52:09 51°11.168 2°44.519 6.4 27 13.5 102460 84
2004-05-18 06:52:15 51°11.158 2°44.481 6.1 24 13.5 102470 84
2004-05-18 06:52:21 51°11.148 2°44.443 6.5 28 13.5 102470 84
2004-05-18 06:52:24 51°11.143 2°44.424 6.4 23 13.5 102470 84
2004-05-18 06:52:29 51°11.135 2°44.393 6.2 24 13.5 102470 84
2004-05-18 06:52:36 51°11.124 2°44.349 6.4 26 13.5 102470 84
2004-05-18 06:52:41 51°11.116 2°44.317 6.7 22 13.5 102470 84
2004-05-18 06:52:45 51°11.111 2°44.291 6.7 23 13.5 102460 84
2004-05-18 06:52:50 51°11.105 2°44.258 7 23 13.5 102460 84
2004-05-18 06:52:55 51°11.099 2°44.226 6.6 26 13.5 102470 84
2004-05-18 06:53:01 51°11.092 2°44.187 6.8 24 13.5 102470 84
2004-05-18 06:53:05 51°11.087 2°44.16 6.5 24 13.6 102470 84
2004-05-18 06:53:09 51°11.083 2°44.134 6.7 24 13.6 102470 84
2004-05-18 06:53:16 51°11.075 2°44.088 6.5 26 13.5 102470 84
2004-05-18 06:53:20 51°11.071 2°44.061 6.5 26 13.5 102470 84
2004-05-18 06:53:25 51°11.066 2°44.028 6.6 25 13.5 102460 84
2004-05-18 06:53:30 51°11.061 2°43.995 6.5 23 13.5 102460 84
2004-05-18 06:53:35 51°11.057 2°43.962 6.4 22 13.5 102470 84
2004-05-18 06:53:40 51°11.052 2°43.928 6.6 26 13.5 102470 84
2004-05-18 06:53:46 51°11.046 2°43.889 6.4 20 13.5 102460 84
2004-05-18 06:53:50 51°11.041 2°43.862 6.5 23 13.5 102460 84
2004-05-18 06:53:55 51°11.035 2°43.83 6.4 22 13.5 102460 84
2004-05-18 06:54:01 51°11.028 2°43.79 6.2 19 13.5 102460 84
2004-05-18 06:54:04 51°11.024 2°43.771 6.1 20 13.5 102470 84
2004-05-18 06:54:09 51°11.017 2°43.738 6 16 13.5 102470 84
2004-05-18 06:54:14 51°11.011 2°43.706 6.3 19 13.5 102470 84
2004-05-18 06:54:21 51°11.002 2°43.66 6.3 20 13.5 102470 84
2004-05-18 06:54:25 51°10.997 2°43.634 6.3 19 13.5 102470 84
2004-05-18 06:54:30 51°10.991 2°43.601 6.6 19 13.5 102470 84
2004-05-18 06:54:36 51°10.983 2°43.562 6.2 19 13.6 102470 84
2004-05-18 06:54:39 51°10.98 2°43.542 6.2 17 13.6 102470 84
2004-05-18 06:54:45 51°10.972 2°43.503 6.3 16 13.6 102470 84
2004-05-18 06:54:50 51°10.965 2°43.47 6.5 18 13.6 102470 84
2004-05-18 06:54:56 51°10.958 2°43.431 6.2 15 13.6 102470 84
2004-05-18 06:55:00 51°10.952 2°43.405 6.2 17 13.6 102470 84
2004-05-18 06:55:06 51°10.944 2°43.366 6.1 18 13.6 102470 84
2004-05-18 06:55:10 51°10.939 2°43.34 6.5 19 13.6 102470 84
2004-05-18 06:55:14 51°10.934 2°43.314 6.4 17 13.5 102470 84
2004-05-18 06:55:21 51°10.925 2°43.268 6.6 16 13.5 102470 84
2004-05-18 06:55:26 51°10.919 2°43.235 6.5 19 13.6 102460 84
2004-05-18 06:55:30 51°10.914 2°43.209 6.5 16 13.6 102460 84
2004-05-18 06:55:36 51°10.907 2°43.169 6.3 17 13.6 102470 84
2004-05-18 06:55:40 51°10.902 2°43.143 6.4 17 13.6 102470 84
2004-05-18 06:55:45 51°10.895 2°43.11 6.4 18 13.6 102470 84
2004-05-18 06:55:50 51°10.889 2°43.078 5.9 15 13.6 102470 84
2004-05-18 06:55:56 51°10.881 2°43.038 6.1 15 13.6 102460 84
2004-05-18 06:56:01 51°10.875 2°43.006 6.2 18 13.6 102460 84
2004-05-18 06:56:05 51°10.87 2°42.98 6.2 18 13.6 102470 84
2004-05-18 06:56:10 51°10.863 2°42.947 6.3 19 13.6 102470 84
2004-05-18 06:56:16 51°10.856 2°42.908 6.2 17 13.6 102470 84
2004-05-18 06:56:20 51°10.851 2°42.881 6 18 13.6 102470 84
2004-05-18 06:56:24 51°10.846 2°42.855 6 17 13.6 102460 84
2004-05-18 06:56:29 51°10.839 2°42.822 6.1 18 13.6 102460 84
2004-05-18 06:56:34 51°10.833 2°42.789 5.9 19 13.6 102460 84
2004-05-18 06:56:41 51°10.824 2°42.744 5.8 19 13.6 102460 84
2004-05-18 06:56:45 51°10.819 2°42.717 5.9 19 13.6 102470 84
2004-05-18 06:56:48 51°10.815 2°42.698 6.3 19 13.6 102470 84
2004-05-18 06:56:53 51°10.809 2°42.665 6 21 13.5 102460 84
2004-05-18 06:57:01 51°10.799 2°42.612 6.1 22 13.5 102460 84
2004-05-18 06:57:05 51°10.794 2°42.586 5.9 19 13.5 102470 84
2004-05-18 06:57:09 51°10.79 2°42.56 6 20 13.5 102470 84
2004-05-18 06:57:15 51°10.782 2°42.52 5.7 20 13.5 102470 84
2004-05-18 06:57:21 51°10.775 2°42.481 5.8 17 13.5 102470 84
2004-05-18 06:57:26 51°10.768 2°42.448 5.6 19 13.5 102470 84
2004-05-18 06:57:30 51°10.764 2°42.422 5.8 20 13.5 102470 84
2004-05-18 06:57:34 51°10.758 2°42.396 5.9 23 13.5 102470 84
2004-05-18 06:57:41 51°10.749 2°42.35 5.8 23 13.5 102470 84
2004-05-18 06:57:45 51°10.744 2°42.323 5.7 23 13.5 102460 84
2004-05-18 06:57:50 51°10.739 2°42.291 5.4 22 13.5 102460 84
2004-05-18 06:57:56 51°10.731 2°42.251 5.4 23 13.5 102470 84
2004-05-18 06:58:00 51°10.726 2°42.225 5.5 24 13.5 102470 84
2004-05-18 06:58:05 51°10.72 2°42.192 5.5 25 13.5 102460 84
2004-05-18 06:58:08 51°10.716 2°42.173 5.6 23 13.5 102460 84
2004-05-18 06:58:16 51°10.706 2°42.12 5.5 24 13.5 102470 84
2004-05-18 06:58:21 51°10.7 2°42.087 5.8 24 13.5 102470 84
2004-05-18 06:58:24 51°10.696 2°42.068 5.6 26 13.5 102460 84
2004-05-18 06:58:30 51°10.689 2°42.028 5.8 25 13.5 102460 84
2004-05-18 06:58:36 51°10.681 2°41.989 5.7 25 13.5 102460 84
2004-05-18 06:58:40 51°10.676 2°41.963 5.3 27 13.5 102460 84
2004-05-18 06:58:44 51°10.672 2°41.936 5.7 26 13.5 102460 84
2004-05-18 06:58:50 51°10.664 2°41.897 5.4 24 13.5 102460 84
2004-05-18 06:58:56 51°10.657 2°41.858 5.2 26 13.5 102460 84
2004-05-18 06:58:59 51°10.653 2°41.838 5.2 22 13.5 102460 84
2004-05-18 06:59:04 51°10.647 2°41.805 5.3 22 13.5 102460 84
2004-05-18 06:59:10 51°10.64 2°41.766 5.5 24 13.5 102460 84
2004-05-18 06:59:15 51°10.634 2°41.733 5.4 23 13.5 102460 84
2004-05-18 06:59:21 51°10.626 2°41.694 5.6 23 13.5 102460 84
2004-05-18 06:59:26 51°10.62 2°41.662 5.5 24 13.5 102460 84
2004-05-18 06:59:28 51°10.617 2°41.649 5.4 24 13.5 102460 84
2004-05-18 06:59:34 51°10.61 2°41.61 5.5 23 13.5 102460 84
2004-05-18 06:59:40 51°10.603 2°41.57 5.8 23 13.5 102460 84
2004-05-18 06:59:45 51°10.597 2°41.538 3.3 23 13.5 102460 84
2004-05-18 06:59:50 51°10.591 2°41.505 5.7 26 13.5 102460 84
2004-05-18 06:59:56 51°10.584 2°41.466 5.6 23 13.5 102470 84
2004-05-18 07:00:00 51°10.579 2°41.439 5.7 23 13.5 102470 84
2004-05-18 07:00:06 51°10.572 2°41.4 5.6 22 13.5 102460 84
2004-05-18 07:00:11 51°10.566 2°41.367 5.7 20 13.5 102460 84
2004-05-18 07:00:15 51°10.561 2°41.341 6 20 13.5 102470 84
2004-05-18 07:00:21 51°10.554 2°41.302 6 22 13.5 102470 84
2004-05-18 07:00:24 51°10.55 2°41.283 6.2 19 13.5 102470 84
2004-05-18 07:00:30 51°10.542 2°41.244 5.9 22 13.5 102470 84
2004-05-18 07:00:35 51°10.536 2°41.211 6.1 20 13.5 102470 84
2004-05-18 07:00:40 51°10.53 2°41.178 6 22 13.5 102470 84
2004-05-18 07:00:45 51°10.524 2°41.146 6.5 21 13.5 102470 84
2004-05-18 07:00:50 51°10.518 2°41.113 5.9 20 13.5 102470 84
2004-05-18 07:00:56 51°10.511 2°41.074 6.2 19 13.5 102470 84
2004-05-18 07:01:00 51°10.506 2°41.048 6.1 18 13.5 102470 84
2004-05-18 07:01:06 51°10.499 2°41.008 6 18 13.5 102470 84
2004-05-18 07:01:10 51°10.494 2°40.982 6.5 20 13.5 102470 84
2004-05-18 07:01:16 51°10.487 2°40.943 6.4 16 13.5 102470 84
2004-05-18 07:01:19 51°10.483 2°40.923 6.3 19 13.5 102470 84
2004-05-18 07:01:25 51°10.476 2°40.884 6.7 19 13.5 102470 84
2004-05-18 07:01:29 51°10.471 2°40.858 6.5 20 13.5 102470 84
2004-05-18 07:01:35 51°10.464 2°40.819 6.4 17 13.5 102470 84
2004-05-18 07:01:39 51°10.459 2°40.793 6.8 18 13.5 102470 84
2004-05-18 07:01:45 51°10.452 2°40.754 6.6 20 13.5 102470 84
2004-05-18 07:01:49 51°10.447 2°40.728 6.8 19 13.5 102470 84
2004-05-18 07:01:56 51°10.438 2°40.682 6.9 18 13.5 102470 84
2004-05-18 07:01:59 51°10.434 2°40.662 6.6 19 13.5 102470 84
2004-05-18 07:02:05 51°10.428 2°40.623 6.8 18 13.5 102470 84
2004-05-18 07:02:09 51°10.423 2°40.597 6.6 20 13.5 102470 84
2004-05-18 07:02:15 51°10.416 2°40.558 6.8 21 13.5 102480 84
2004-05-18 07:02:19 51°10.411 2°40.531 6.8 20 13.5 102480 84
2004-05-18 07:02:25 51°10.404 2°40.492 6.7 19 13.5 102470 84
2004-05-18 07:02:29 51°10.399 2°40.466 7 19 13.5 102470 84
2004-05-18 07:02:36 51°10.391 2°40.421 6.8 20 13.5 102480 84
2004-05-18 07:02:39 51°10.387 2°40.401 7.2 18 13.5 102480 84
2004-05-18 07:02:45 51°10.38 2°40.362 7.4 20 13.5 102480 84
2004-05-18 07:02:50 51°10.374 2°40.33 7.1 17 13.5 102480 84
2004-05-18 07:02:56 51°10.367 2°40.291 7.2 19 13.5 102480 84
2004-05-18 07:03:00 51°10.362 2°40.265 7.3 17 13.5 102480 84
2004-05-18 07:03:05 51°10.356 2°40.232 7.5 19 13.5 102480 84
2004-05-18 07:03:10 51°10.35 2°40.2 7 17 13.5 102480 84
2004-05-18 07:03:16 51°10.343 2°40.161 6.8 17 13.5 102480 84
2004-05-18 07:03:20 51°10.338 2°40.135 7   13.5 102480 84
2004-05-18 07:03:26 51°10.331 2°40.096 7.3 15 13.5 102480 84
2004-05-18 07:03:30 51°10.326 2°40.07 7.3 17 13.5 102480 84
2004-05-18 07:03:35 51°10.32 2°40.038 6.8 19 13.5 102480 84
2004-05-18 07:03:40 51°10.314 2°40.006 6.9 16 13.5 102480 84
2004-05-18 07:03:45 51°10.308 2°39.973 7.2 18 13.5 102480 84
2004-05-18 07:03:48 51°10.305 2°39.954 7.4 20 13.5 102480 84
2004-05-18 07:03:55 51°10.296 2°39.909 6.7 17 13.5 102480 84
2004-05-18 07:03:59 51°10.292 2°39.883 6.9 17 13.5 102480 84
2004-05-18 07:04:04 51°10.285 2°39.851 7.1 18 13.5 102480 84
2004-05-18 07:04:10 51°10.278 2°39.812 7.2 14 13.5 102480 84
2004-05-18 07:04:15 51°10.272 2°39.78 6.8 16 13.5 102480 84
2004-05-18 07:04:20 51°10.266 2°39.748 6.7 15 13.5 102480 84
2004-05-18 07:04:25 51°10.261 2°39.716 6.9 15 13.5 102480 84
2004-05-18 07:04:30 51°10.255 2°39.684 6.9 14 13.5 102480 84
2004-05-18 07:04:36 51°10.248 2°39.645 7.1 13 13.5 102480 84
2004-05-18 07:04:39 51°10.244 2°39.626 7.2 14 13.5 102480 84
2004-05-18 07:04:45 51°10.237 2°39.587 7 14 13.5 102480 84
2004-05-18 07:04:50 51°10.231 2°39.555 7.1 14 13.5 102480 84
2004-05-18 07:04:56 51°10.224 2°39.516 7 13 13.5 102480 84
2004-05-18 07:05:00 51°10.219 2°39.491 6.9 12 13.5 102480 84
2004-05-18 07:05:04 51°10.214 2°39.465 7.1 11 13.5 102480 84
2004-05-18 07:05:10 51°10.206 2°39.427 6.9 12 13.5 102480 84
2004-05-18 07:05:15 51°10.199 2°39.395 7 12 13.5 102480 84
2004-05-18 07:05:20 51°10.192 2°39.363 7.2 12 13.5 102480 84
2004-05-18 07:05:25 51°10.185 2°39.332 6.9 13 13.5 102480 84
2004-05-18 07:05:30 51°10.178 2°39.3 6.8 13 13.5 102480 84
2004-05-18 07:05:35 51°10.171 2°39.269 7 14 13.5 102480 84
2004-05-18 07:05:39 51°10.165 2°39.244 6.7 13 13.5 102480 84
2004-05-18 07:05:45 51°10.156 2°39.206 6.7 12 13.5 102480 84
2004-05-18 07:05:50 51°10.149 2°39.175 6.8 11 13.5 102480 84
2004-05-18 07:05:56 51°10.14 2°39.137 6.8 13 13.4 102480 84
2004-05-18 07:06:01 51°10.133 2°39.106 6.7 15 13.4 102480 84
2004-05-18 07:06:06 51°10.126 2°39.074 6.7 13 13.4 102480 84
2004-05-18 07:06:10 51°10.12 2°39.049 6.7 15 13.4 102480 84
2004-05-18 07:06:16 51°10.111 2°39.011 6.9 16 13.4 102480 84
2004-05-18 07:06:20 51°10.105 2°38.986 6.7 15 13.4 102480 84
2004-05-18 07:06:24 51°10.099 2°38.961 6.5 16 13.4 102480 84
2004-05-18 07:06:31 51°10.089 2°38.917 6.7 16 13.4 102480 84
2004-05-18 07:06:35 51°10.083 2°38.892 6.9 17 13.4 102480 84
2004-05-18 07:06:41 51°10.074 2°38.854 6.7 18 13.4 102480 84
2004-05-18 07:06:45 51°10.069 2°38.829 6.4 18 13.4 102480 84
2004-05-18 07:06:48 51°10.065 2°38.81 6.5 20 13.4 102480 84
2004-05-18 07:06:54 51°10.056 2°38.772 6.3 19 13.4 102480 84
2004-05-18 07:07:00 51°10.047 2°38.734 6.3 19 13.4 102480 84
2004-05-18 07:07:05 51°10.04 2°38.703 6.2 16 13.4 102480 84
2004-05-18 07:07:10 51°10.032 2°38.671 6.2 18 13.4 102480 84
2004-05-18 07:07:13 51°10.028 2°38.652 6.2 17 13.4 102480 84
2004-05-18 07:07:20 51°10.018 2°38.608 6 16 13.4 102480 84
2004-05-18 07:07:24 51°10.013 2°38.582 6 21 13.4 102480 84
2004-05-18 07:07:30 51°10.004 2°38.544 6 19 13.4 102480 84
2004-05-18 07:07:35 51°9.997 2°38.512 5.9 17 13.4 102480 84
2004-05-18 07:07:41 51°9.989 2°38.474 5.9 17 13.4 102480 84
2004-05-18 07:07:44 51°9.984 2°38.455 5.8 19 13.4 102480 84
2004-05-18 07:07:50 51°9.975 2°38.417 6 17 13.4 102480 84
2004-05-18 07:07:55 51°9.968 2°38.385 5.9 19 13.4 102480 84
2004-05-18 07:08:00 51°9.961 2°38.354 5.9 18 13.4 102480 84
2004-05-18 07:08:05 51°9.954 2°38.322 6.3 20 13.3 102480 84
2004-05-18 07:08:10 51°9.947 2°38.29 6.1 17 13.3 102480 84
2004-05-18 07:08:16 51°9.939 2°38.252 5.9 17 13.3 102480 84
2004-05-18 07:08:20 51°9.933 2°38.226 6.3 18 13.3 102480 84
2004-05-18 07:08:26 51°9.924 2°38.188 6.1 16 13.4 102480 84
2004-05-18 07:08:30 51°9.919 2°38.162 6.2 17 13.4 102480 84
2004-05-18 07:08:35 51°9.912 2°38.13 6.1 16 13.4 102470 84
2004-05-18 07:08:39 51°9.907 2°38.105 6.2 19 13.4 102470 84
2004-05-18 07:08:45 51°9.899 2°38.066 6.1 18 13.4 102480 84
2004-05-18 07:08:49 51°9.894 2°38.04 6.1 17 13.4 102480 84
2004-05-18 07:08:56 51°9.885 2°37.995 6 16 13.4 102480 84
2004-05-18 07:09:06 51°9.871 2°37.931 5.9 17 13.4 102480 84
2004-05-18 07:09:10 51°9.866 2°37.905 6.2 15 13.4 102480 84
2004-05-18 07:09:16 51°9.859 2°37.866 6.1 15 13.4 102480 84
2004-05-18 07:09:18 51°9.856 2°37.853 6.1 16 13.4 102480 84
2004-05-18 07:09:26 51°9.846 2°37.802 6.1 13 13.4 102480 84
2004-05-18 07:09:31 51°9.839 2°37.77 6.1 15 13.4 102480 84
2004-05-18 07:09:36 51°9.832 2°37.738 6 14 13.3 102470 84
2004-05-18 07:09:41 51°9.825 2°37.706 5.8 14 13.3 102470 84
2004-05-18 07:09:46 51°9.819 2°37.673 6 11 13.4 102470 84
2004-05-18 07:09:50 51°9.814 2°37.648 5.8 14 13.4 102470 84
2004-05-18 07:09:56 51°9.806 2°37.609 5.8 15 13.4 102470 84
2004-05-18 07:10:01 51°9.8 2°37.577 6 14 13.4 102470 84
2004-05-18 07:10:05 51°9.794 2°37.551 5.7 14 13.3 102470 84
2004-05-18 07:10:12 51°9.785 2°37.506 5.8 12 13.3 102470 84
2004-05-18 07:10:16 51°9.78 2°37.48 5.8 15 13.4 102470 84
2004-05-18 07:10:19 51°9.776 2°37.461 5.7 14 13.4 102470 84
2004-05-18 07:10:26 51°9.766 2°37.416 5.7 12 13.4 102470 84
2004-05-18 07:10:32 51°9.759 2°37.377 5.6 13 13.4 102470 84
2004-05-18 07:10:36 51°9.753 2°37.351 5.8 15 13.4 102470 84
2004-05-18 07:10:41 51°9.747 2°37.319 5.8 14 13.4 102470 84
2004-05-18 07:10:46 51°9.74 2°37.287 5.6 14 13.3 102470 84
2004-05-18 07:10:52 51°9.732 2°37.248 5.5 13 13.3 102470 84
2004-05-18 07:10:56 51°9.727 2°37.223 5.6 13 13.4 102470 84
2004-05-18 07:11:01 51°9.72 2°37.19 5.5 14 13.4 102470 84
2004-05-18 07:11:06 51°9.713 2°37.158 5.3 15 13.3 102470 84
2004-05-18 07:11:12 51°9.706 2°37.119 5.6 13 13.3 102470 84
2004-05-18 07:11:16 51°9.701 2°37.094 5.2 15 13.4 102470 84
2004-05-18 07:11:21 51°9.694 2°37.061 5.5 13 13.4 102470 84
2004-05-18 07:11:24 51°9.69 2°37.042 5.5 15 13.4 102470 84
2004-05-18 07:11:32 51°9.679 2°36.99 5.3 12 13.4 102470 84
2004-05-18 07:11:34 51°9.677 2°36.977 5.3 13 13.3 102470 84
2004-05-18 07:11:41 51°9.668 2°36.932 5.3 13 13.3 102470 84
2004-05-18 07:11:46 51°9.661 2°36.9 5.2 13 13.3 102470 85
2004-05-18 07:11:50 51°9.656 2°36.874 5.3 13 13.3 102470 85
2004-05-18 07:11:56 51°9.648 2°36.835 5.2 14 13.3 102470 84
2004-05-18 07:11:58 51°9.645 2°36.822 5.3 13 13.3 102470 84
2004-05-18 07:12:06 51°9.635 2°36.77 5.2 14 13.4 102470 84
2004-05-18 07:12:12 51°9.627 2°36.731 5.4 13 13.4 102470 84
2004-05-18 07:12:15 51°9.623 2°36.712 5.5 14 13.3 102470 85
2004-05-18 07:12:21 51°9.615 2°36.673 5.1 12 13.3 102470 85
2004-05-18 07:12:25 51°9.61 2°36.647 5.4 13 13.4 102470 85
2004-05-18 07:12:31 51°9.602 2°36.608 5.5 14 13.4 102470 85
2004-05-18 07:12:36 51°9.596 2°36.575 5.3 13 13.3 102470 85
2004-05-18 07:12:42 51°9.587 2°36.537 5.3 13 13.3 102470 85
2004-05-18 07:12:46 51°9.582 2°36.511 5.5 13 13.3 102470 85
2004-05-18 07:12:52 51°9.574 2°36.472 5.1 13 13.3 102470 85
2004-05-18 07:12:54 51°9.571 2°36.459 5.1 12 13.3 102470 85
2004-05-18 07:13:02 51°9.561 2°36.408 4.7 13 13.3 102470 85
2004-05-18 07:13:06 51°9.556 2°36.384 4.5 13 13.3 102470 85
2004-05-18 07:13:11 51°9.55 2°36.355 3.9 13 13.3 102470 85
2004-05-18 07:13:16 51°9.544 2°36.329 3.7 15 13.3 102470 85
2004-05-18 07:13:20 51°9.54 2°36.308 3.5 19 13.3 102470 85
2004-05-18 07:13:26 51°9.534 2°36.28 3.1 17 13.3 102470 85
2004-05-18 07:13:32 51°9.529 2°36.252 2.6 21 13.3 102470 85
2004-05-18 07:13:35 51°9.526 2°36.24 2.5 22 13.3 102470 85
2004-05-18 07:13:41 51°9.522 2°36.215 2.3 22 13.3 102470 85
2004-05-18 07:13:46 51°9.518 2°36.195 2.2 24 13.3 102470 85
2004-05-18 07:13:52 51°9.514 2°36.171 2 30 13.3 102470 85
2004-05-18 07:13:56 51°9.511 2°36.157 2.1 32 13.3 102470 85
2004-05-18 07:14:01 51°9.508 2°36.138 1.8 34 13.3 102470 85
2004-05-18 07:14:06 51°9.505 2°36.121 1.8 39 13.3 102470 85
2004-05-18 07:14:12 51°9.502 2°36.101 1.6 42 13.3 102470 85
2004-05-18 07:14:16 51°9.499 2°36.089 1.5 42 13.3 102470 85
2004-05-18 07:14:21 51°9.497 2°36.073 1.5 44 13.3 102470 85
2004-05-18 07:14:26 51°9.494 2°36.057 1.4 50 13.4 102470 85
2004-05-18 07:14:31 51°9.492 2°36.043 1.4 57 13.4 102470 85
2004-05-18 07:14:36 51°9.489 2°36.028 1.4 61 13.4 102470 85
2004-05-18 07:14:41 51°9.487 2°36.014 1.4 62 13.4 102470 85
2004-05-18 07:14:46 51°9.485 2°36 1.2 69 13.4 102470 85
2004-05-18 07:14:50 51°9.483 2°35.99 1.5 79 13.4 102470 85
2004-05-18 07:14:56 51°9.48 2°35.974 1.2 79 13.4 102470 85
2004-05-18 07:15:01 51°9.478 2°35.961 1.2 79 13.4 102470 85
2004-05-18 07:15:06 51°9.476 2°35.949 1.3 79 13.4 102470 85
2004-05-18 07:15:12 51°9.473 2°35.935 1.3 87 13.4 102470 85
2004-05-18 07:15:16 51°9.471 2°35.925 1.3 89 13.4 102470 85
2004-05-18 07:15:21 51°9.469 2°35.914 1.2 99 13.4 102470 85
2004-05-18 07:15:26 51°9.466 2°35.904 1.4 112 13.4 102470 85
2004-05-18 07:15:31 51°9.464 2°35.894 1.4 126 13.4 102470 85
2004-05-18 07:15:36 51°9.463 2°35.887 1.8 127 13.4 102470 85
2004-05-18 07:15:39 51°9.462 2°35.883 1.7 127 13.4 102470 85
2004-05-18 07:15:45 51°9.46 2°35.874 1.7 125 13.4 102470 85
2004-05-18 07:15:52 51°9.458 2°35.865 1.8 120 13.4 102470 85
2004-05-18 07:15:54 51°9.458 2°35.862 1.6 120 13.4 102480 85
2004-05-18 07:16:01 51°9.456 2°35.853 1.8 118 13.4 102480 85
2004-05-18 07:16:06 51°9.455 2°35.846 1.9 117 13.4 102470 85
2004-05-18 07:16:11 51°9.454 2°35.839 2.1 117 13.4 102470 85
2004-05-18 07:16:16 51°9.453 2°35.833 2.1 117 13.4 102470 85
2004-05-18 07:16:22 51°9.452 2°35.825 2.1 119 13.4 102470 85
2004-05-18 07:16:25 51°9.451 2°35.821 2 119 13.4 102470 85
2004-05-18 07:16:32 51°9.45 2°35.813 1.9 115 13.4 102470 85
2004-05-18 07:16:36 51°9.449 2°35.808 2 115 13.4 102470 85
2004-05-18 07:16:42 51°9.448 2°35.799 2 109 13.4 102470 85
2004-05-18 07:16:46 51°9.448 2°35.794 2.2 109 13.4 102470 85
2004-05-18 07:16:50 51°9.447 2°35.788 2.2 108 13.4 102470 85
2004-05-18 07:16:56 51°9.446 2°35.779 2.2 108 13.4 102470 85
2004-05-18 07:17:01 51°9.446 2°35.772 2.2 107 13.4 102470 85
2004-05-18 07:17:05 51°9.445 2°35.766 2.2 106 13.4 102470 85
2004-05-18 07:17:12 51°9.445 2°35.756 2.3 103 13.4 102470 85
2004-05-18 07:17:16 51°9.444 2°35.75 2.2 103 13.4 102470 85
2004-05-18 07:17:22 51°9.444 2°35.741 2.2 102 13.4 102470 85
2004-05-18 07:17:26 51°9.444 2°35.735 2.4 101 13.4 102470 85
2004-05-18 07:17:31 51°9.444 2°35.727 2.4 98 13.4 102470 85
2004-05-18 07:17:36 51°9.443 2°35.72 2.5 98 13.4 102470 85
2004-05-18 07:17:39 51°9.443 2°35.715 2.3 97 13.4 102470 85
2004-05-18 07:17:45 51°9.443 2°35.706 2.4 95 13.4 102480 85
2004-05-18 07:17:52 51°9.443 2°35.695 2.5 93 13.4 102480 85
2004-05-18 07:17:54 51°9.443 2°35.692 2.5 93 13.4 102470 85
2004-05-18 07:18:01 51°9.443 2°35.681 2.7 94 13.4 102470 85
2004-05-18 07:18:06 51°9.442 2°35.673 2.6 93 13.5 102470 85
2004-05-18 07:18:12 51°9.442 2°35.664 2.5 94 13.5 102470 85
2004-05-18 07:18:16 51°9.442 2°35.658 2.6 93 13.4 102470 85
2004-05-18 07:18:22 51°9.442 2°35.648 2.7 92 13.4 102470 85
2004-05-18 07:18:24 51°9.442 2°35.645 1.9 91 13.4 102470 85
2004-05-18 07:18:32 51°9.443 2°35.632 2.7 90 13.4 102470 85
2004-05-18 07:18:36 51°9.443 2°35.626 2.8 89 13.5 102470 85
2004-05-18 07:18:41 51°9.443 2°35.618 2.7 89 13.5 102470 85
2004-05-18 07:18:46 51°9.443 2°35.611 2.8 89 13.5 102470 85
2004-05-18 07:18:52 51°9.443 2°35.601 2.8 89 13.5 102470 85
2004-05-18 07:18:56 51°9.443 2°35.595 2.8 86 13.4 102470 85
2004-05-18 07:19:02 51°9.444 2°35.586 3.1 85 13.4 102470 85
2004-05-18 07:19:06 51°9.444 2°35.58 2.8 85 13.5 102470 85
2004-05-18 07:19:11 51°9.444 2°35.573 2.6 86 13.5 102470 85
2004-05-18 07:19:16 51°9.445 2°35.565 2.5 84 13.5 102480 85
2004-05-18 07:19:21 51°9.445 2°35.558 2.7 85 13.5 102480 85
2004-05-18 07:19:26 51°9.445 2°35.55 3.1 85 13.5 102480 85
2004-05-18 07:19:32 51°9.446 2°35.541 3 85 13.5 102480 85
2004-05-18 07:19:37 51°9.446 2°35.534 3 85 13.5 102470 85
2004-05-18 07:19:41 51°9.446 2°35.528 2.9 87 13.5 102470 85
2004-05-18 07:19:46 51°9.447 2°35.52 2.9 88 13.4 102470 85
2004-05-18 07:19:52 51°9.447 2°35.511 2.6 89 13.4 102470 85
2004-05-18 07:19:56 51°9.447 2°35.505 2.7 87 13.4 102470 85
2004-05-18 07:20:02 51°9.448 2°35.496 2.7 86 13.4 102470 85
2004-05-18 07:20:06 51°9.448 2°35.491 2.7 85 13.4 102480 85
2004-05-18 07:20:12 51°9.448 2°35.482 2.8 85 13.4 102480 85
2004-05-18 07:20:15 51°9.449 2°35.477 2.8 85 13.4 102470 85
2004-05-18 07:20:21 51°9.449 2°35.469 2.7 86 13.4 102470 85
2004-05-18 07:20:26 51°9.45 2°35.461 2.8 86 13.4 102480 85
2004-05-18 07:20:32 51°9.45 2°35.453 2.6 85 13.4 102480 85
2004-05-18 07:20:36 51°9.45 2°35.447 2.7 82 13.4 102480 85
2004-05-18 07:20:41 51°9.451 2°35.439 2.7 82 13.4 102480 85
2004-05-18 07:20:46 51°9.452 2°35.432 2.5 81 13.4 102470 85
2004-05-18 07:20:52 51°9.452 2°35.424 2.8 83 13.4 102470 85
2004-05-18 07:20:56 51°9.453 2°35.418 2.6 82 13.4 102480 85
2004-05-18 07:21:01 51°9.453 2°35.411 2.8 82 13.4 102480 85
2004-05-18 07:21:06 51°9.454 2°35.404 2.8 82 13.4 102480 85
2004-05-18 07:21:12 51°9.454 2°35.395 2.8 82 13.4 102480 85
2004-05-18 07:21:16 51°9.455 2°35.39 2.8 83 13.4 102480 85
2004-05-18 07:21:22 51°9.455 2°35.381 2.7 83 13.4 102480 85
2004-05-18 07:21:26 51°9.456 2°35.376 2.7 83 13.4 102480 85
2004-05-18 07:21:32 51°9.456 2°35.367 2.1 79 13.4 102480 85
2004-05-18 07:21:36 51°9.457 2°35.361 2.6 81 13.3 102480 85
2004-05-18 07:21:41 51°9.457 2°35.354 2.4 81 13.3 102480 85
2004-05-18 07:21:46 51°9.458 2°35.347 2.6 81 13.4 102480 85
2004-05-18 07:21:52 51°9.458 2°35.339 2.6 81 13.4 102480 85
2004-05-18 07:21:55 51°9.459 2°35.335 2.3 79 13.3 102480 85
2004-05-18 07:22:01 51°9.459 2°35.326 1.9 79 13.3 102480 85
2004-05-18 07:22:06 51°9.46 2°35.319 1.9 75 13.3 102480 85
2004-05-18 07:22:12 51°9.461 2°35.311 2.5 74 13.3 102480 85
2004-05-18 07:22:16 51°9.461 2°35.306 2.5 75 13.4 102480 85
2004-05-18 07:22:21 51°9.462 2°35.299 2.3 79 13.4 102480 85
2004-05-18 07:22:26 51°9.463 2°35.292 2.2 74 13.3 102480 85
2004-05-18 07:22:32 51°9.463 2°35.283 2.1 74 13.3 102480 85
2004-05-18 07:22:36 51°9.464 2°35.278 2.5 69 13.3 102480 85
2004-05-18 07:22:41 51°9.464 2°35.271 2.5 72 13.3 102480 85
2004-05-18 07:22:46 51°9.465 2°35.264 2.4 73 13.3 102480 85
2004-05-18 07:22:52 51°9.465 2°35.256 2.6 70 13.3 102480 85
2004-05-18 07:22:56 51°9.466 2°35.25 2.5 71 13.3 102480 85
2004-05-18 07:23:01 51°9.467 2°35.243 2.4 79 13.3 102480 85
2004-05-18 07:23:06 51°9.467 2°35.236 2.2 76 13.3 102480 85
2004-05-18 07:23:12 51°9.468 2°35.228 2.4 69 13.3 102480 85
2004-05-18 07:23:15 51°9.468 2°35.223 2.7 66 13.3 102480 85
2004-05-18 07:23:22 51°9.469 2°35.214 2.3 68 13.3 102480 85
2004-05-18 07:23:26 51°9.469 2°35.208 2.5 66 13.3 102480 85
2004-05-18 07:23:32 51°9.47 2°35.2 2.3 70 13.3 102480 85
2004-05-18 07:23:37 51°9.47 2°35.193 2.5 68 13.3 102480 85
2004-05-18 07:23:41 51°9.471 2°35.187 2.4 68 13.3 102480 85
2004-05-18 07:23:46 51°9.471 2°35.181 2.2 71 13.2 102480 85
2004-05-18 07:23:52 51°9.472 2°35.172 2.3 67 13.2 102480 85
2004-05-18 07:23:56 51°9.472 2°35.167 2.6 61 13.2 102480 85
2004-05-18 07:24:02 51°9.473 2°35.159 2.3 67 13.2 102480 85
2004-05-18 07:24:06 51°9.474 2°35.153 2.6 60 13.2 102480 85
2004-05-18 07:24:12 51°9.474 2°35.145 2.4 60 13.2 102480 85
2004-05-18 07:24:16 51°9.475 2°35.139 2.6 63 13.2 102480 86
2004-05-18 07:24:21 51°9.475 2°35.132 2.7 65 13.2 102480 86
2004-05-18 07:24:26 51°9.476 2°35.125 2.6 67 13.2 102480 86
2004-05-18 07:24:32 51°9.477 2°35.117 2.4 65 13.2 102480 86
2004-05-18 07:24:35 51°9.477 2°35.112 2.4 62 13.2 102480 86
2004-05-18 07:24:42 51°9.478 2°35.103 2.4 66 13.2 102480 86
2004-05-18 07:24:46 51°9.478 2°35.097 2.6 60 13.2 102480 86
2004-05-18 07:24:52 51°9.479 2°35.089 2.7 59 13.2 102480 86
2004-05-18 07:24:56 51°9.48 2°35.083 2.6 60 13.2 102480 86
2004-05-18 07:25:01 51°9.48 2°35.076 2.5 62 13.2 102480 86
2004-05-18 07:25:06 51°9.481 2°35.07 2.5 60 13.2 102490 86
2004-05-18 07:25:12 51°9.482 2°35.061 2.5 60 13.2 102490 86
2004-05-18 07:25:16 51°9.482 2°35.055 2.5 61 13.2 102490 86
2004-05-18 07:25:22 51°9.483 2°35.047 2.5 60 13.2 102490 86
2004-05-18 07:25:26 51°9.484 2°35.042 2.5 62 13.1 102490 86
2004-05-18 07:25:32 51°9.485 2°35.034 2.2 60 13.1 102490 86
2004-05-18 07:25:35 51°9.485 2°35.029 2.2 60 13.1 102480 86
2004-05-18 07:25:42 51°9.486 2°35.02 2.3 54 13.1 102480 86
2004-05-18 07:25:46 51°9.487 2°35.014 2.2 54 13.1 102480 86
2004-05-18 07:25:52 51°9.488 2°35.006 2.5 54 13.1 102480 86
2004-05-18 07:25:57 51°9.489 2°34.999 2.6 54 13.1 102490 86
2004-05-18 07:26:02 51°9.489 2°34.993 2.7 54 13.1 102490 86
2004-05-18 07:26:06 51°9.49 2°34.987 2.4 49 13.1 102490 86
2004-05-18 07:26:10 51°9.491 2°34.982 2.6 47 13.1 102490 86
2004-05-18 07:26:16 51°9.492 2°34.974 2.7 48 13.1 102490 86
2004-05-18 07:26:22 51°9.493 2°34.966 2.8 49 13.1 102490 86
2004-05-18 07:26:26 51°9.494 2°34.961 2.8 49 13.1 102490 86
2004-05-18 07:26:32 51°9.495 2°34.953 2.8 47 13.1 102490 86
2004-05-18 07:26:37 51°9.496 2°34.946 2.7 47 13.1 102490 86
2004-05-18 07:26:41 51°9.497 2°34.941 2.8 47 13.1 102490 86
2004-05-18 07:26:46 51°9.498 2°34.935 2.8 47 13.1 102490 86
2004-05-18 07:26:52 51°9.499 2°34.927 2.7 49 13.1 102490 86
2004-05-18 07:26:57 51°9.5 2°34.921 2.7 47 13.1 102490 86
2004-05-18 07:27:00 51°9.501 2°34.917 2.7 43 13.1 102490 86
2004-05-18 07:27:06 51°9.502 2°34.91 2.6 38 13.1 102490 86
2004-05-18 07:27:12 51°9.503 2°34.902 2.6 39 13.1 102490 86
2004-05-18 07:27:16 51°9.504 2°34.898 2.6 36 13.1 102490 86
2004-05-18 07:27:21 51°9.505 2°34.892 2.5 37 13.1 102490 86
2004-05-18 07:27:25 51°9.506 2°34.887 2.7 36 13.1 102490 86
2004-05-18 07:27:32 51°9.508 2°34.878 2.6 35 13.1 102490 86
2004-05-18 07:27:36 51°9.509 2°34.874 2.6 35 13.1 102490 86
2004-05-18 07:27:42 51°9.51 2°34.866 2.5 35 13.1 102490 86
2004-05-18 07:27:46 51°9.511 2°34.862 2.7 31 13.1 102490 86
2004-05-18 07:27:52 51°9.512 2°34.854 2.8 32 13.1 102490 86
2004-05-18 07:27:56 51°9.513 2°34.85 2.6 32 13.1 102490 86
2004-05-18 07:28:02 51°9.515 2°34.843 2.6 33 13.1 102490 86
2004-05-18 07:28:06 51°9.516 2°34.838 2.6 32 13.1 102490 86
2004-05-18 07:28:12 51°9.518 2°34.832 2.5 31 13.1 102490 86
2004-05-18 07:28:16 51°9.519 2°34.827 2.7 31 13.1 102490 86
2004-05-18 07:28:21 51°9.52 2°34.821 2.5 30 13.1 102490 86
2004-05-18 07:28:24 51°9.521 2°34.818 2.5 28 13.1 102490 86
2004-05-18 07:28:32 51°9.523 2°34.809 2.8 28 13.1 102490 86
2004-05-18 07:28:34 51°9.523 2°34.807 2.4 28 13.1 102490 86
2004-05-18 07:28:41 51°9.525 2°34.8 2.6 32 13.1 102490 86
2004-05-18 07:28:46 51°9.526 2°34.794 2.6 33 13.1 102490 86
2004-05-18 07:28:52 51°9.528 2°34.788 2.6 29 13.1 102490 86
2004-05-18 07:28:56 51°9.529 2°34.784 2.6 27 13.1 102490 87
2004-05-18 07:28:58 51°9.53 2°34.782 2.5 25 13.1 102490 87
2004-05-18 07:29:06 51°9.532 2°34.774 2.6 27 13.1 102490 87
2004-05-18 07:29:11 51°9.534 2°34.769 2.4 27 13.1 102490 87
2004-05-18 07:29:16 51°9.535 2°34.764 2.5 29 13.1 102490 86
2004-05-18 07:29:21 51°9.537 2°34.759 2.7 28 13.1 102490 86
2004-05-18 07:29:26 51°9.538 2°34.755 2.6 27 13.1 102490 87
2004-05-18 07:29:32 51°9.54 2°34.75 2.5 27 13.1 102490 87
2004-05-18 07:29:35 51°9.541 2°34.747 2.5 26 13.1 102490 87
2004-05-18 07:29:42 51°9.543 2°34.742 2.3 27 13.1 102490 87
2004-05-18 07:29:46 51°9.545 2°34.739 2.2 27 13.2 102490 87
2004-05-18 07:29:52 51°9.547 2°34.734 2.5 27 13.2 102490 87
2004-05-18 07:29:56 51°9.548 2°34.731 2.6 30 13.2 102490 86
2004-05-18 07:30:01 51°9.55 2°34.728 2.7 29 13.2 102490 86
2004-05-18 07:30:06 51°9.552 2°34.725 2.6 28 13.2 102490 86
2004-05-18 07:30:12 51°9.554 2°34.721 2.7 27 13.2 102490 86
2004-05-18 07:30:16 51°9.555 2°34.719 2.4 26 13.2 102490 87
2004-05-18 07:30:22 51°9.557 2°34.715 2.5 27 13.2 102490 87
2004-05-18 07:30:26 51°9.558 2°34.713 2.5 27 13.2 102490 86
2004-05-18 07:30:32 51°9.561 2°34.71 2.4 25 13.2 102490 86
2004-05-18 07:30:36 51°9.562 2°34.707 2.4 20 13.2 102490 86
2004-05-18 07:30:41 51°9.564 2°34.705 2.3 20 13.2 102490 86
2004-05-18 07:30:46 51°9.565 2°34.702 2.2 20 13.2 102490 86
2004-05-18 07:30:52 51°9.567 2°34.699 2.3 15 13.2 102490 86
2004-05-18 07:30:55 51°9.568 2°34.698 2.3 15 13.2 102490 86
2004-05-18 07:31:02 51°9.571 2°34.695 2.4 17 13.2 102490 86
2004-05-18 07:31:06 51°9.572 2°34.693 2.1 17 13.3 102490 86
2004-05-18 07:31:12 51°9.574 2°34.69 2.5 16 13.3 102490 86
2004-05-18 07:31:16 51°9.576 2°34.689 2.6 15 13.3 102490 86
2004-05-18 07:31:21 51°9.578 2°34.687 2.5 20 13.3 102490 86
2004-05-18 07:31:26 51°9.579 2°34.685 2.5 15 13.3 102490 86
2004-05-18 07:31:31 51°9.581 2°34.683 2.6 14 13.3 102490 86
2004-05-18 07:31:36 51°9.583 2°34.681 2.7 14 13.3 102490 86
2004-05-18 07:31:42 51°9.585 2°34.679 2.6 11 13.3 102490 86
2004-05-18 07:31:46 51°9.587 2°34.677 2.7 12 13.4 102490 86
2004-05-18 07:31:52 51°9.589 2°34.676 2.5 12 13.4 102490 86
2004-05-18 07:31:56 51°9.591 2°34.674 2.5 10 13.4 102490 86
2004-05-18 07:32:01 51°9.592 2°34.673 2.6 9 13.4 102490 86
2004-05-18 07:32:04 51°9.593 2°34.672 2.6 7 13.4 102490 86
2004-05-18 07:32:12 51°9.596 2°34.67 2.6 5 13.4 102490 86
2004-05-18 07:32:16 51°9.597 2°34.669 2.6 5 13.4 102490 86
2004-05-18 07:32:21 51°9.599 2°34.667 2.7 3 13.4 102490 86
2004-05-18 07:32:26 51°9.6 2°34.666 2.7 3 13.4 102490 86
2004-05-18 07:32:30 51°9.602 2°34.665 2.7 4 13.4 102490 86
2004-05-18 07:32:36 51°9.603 2°34.664 2.7 4 13.5 102490 86
2004-05-18 07:32:38 51°9.604 2°34.663 2.8 2 13.5 102490 86
2004-05-18 07:32:45 51°9.606 2°34.661 2.9 1 13.5 102490 86
2004-05-18 07:32:52 51°9.608 2°34.66 2.8 359 13.5 102490 86
2004-05-18 07:32:56 51°9.609 2°34.659 2.8 359 13.5 102490 86
2004-05-18 07:33:01 51°9.61 2°34.658 2.7 359 13.5 102490 86
2004-05-18 07:33:06 51°9.611 2°34.657 2.6 359 13.5 102490 86
2004-05-18 07:33:12 51°9.613 2°34.656 2.5 358 13.5 102490 86
2004-05-18 07:33:15 51°9.613 2°34.655 2.5 356 13.5 102490 85
2004-05-18 07:33:22 51°9.615 2°34.653 2.4 355 13.5 102490 85
2004-05-18 07:33:26 51°9.615 2°34.653 2.8 351 13.5 102490 85
2004-05-18 07:33:32 51°9.617 2°34.652 2.7 351 13.5 102490 85
2004-05-18 07:33:36 51°9.617 2°34.651 2.7 351 13.5 102490 85
2004-05-18 07:33:41 51°9.618 2°34.65 2.8 348 13.5 102490 85
2004-05-18 07:33:46 51°9.619 2°34.649 2.6 350 13.5 102490 85
2004-05-18 07:33:51 51°9.62 2°34.648 2.7 350 13.5 102490 85
2004-05-18 07:33:56 51°9.621 2°34.647 2.7 350 13.5 102490 85
2004-05-18 07:34:02 51°9.623 2°34.646 3 351 13.5 102490 85
2004-05-18 07:34:04 51°9.623 2°34.646 3.1 351 13.6 102490 85
2004-05-18 07:34:12 51°9.626 2°34.646 3.3 352 13.6 102490 85
2004-05-18 07:34:14 51°9.627 2°34.646 3.7 353 13.6 102490 85
2004-05-18 07:34:22 51°9.632 2°34.648 4.2 356 13.6 102490 85
2004-05-18 07:34:26 51°9.636 2°34.65 4.6 357 13.6 102490 85
2004-05-18 07:34:32 51°9.642 2°34.654 4.9 357 13.6 102490 85
2004-05-18 07:34:36 51°9.647 2°34.657 5.3 358 13.6 102490 85
2004-05-18 07:34:41 51°9.654 2°34.661 6.1 360 13.6 102490 85
2004-05-18 07:34:45 51°9.661 2°34.666 6.7 359 13.6 102490 85
2004-05-18 07:34:51 51°9.673 2°34.674 7.2 2 13.6 102490 85
2004-05-18 07:34:56 51°9.684 2°34.683 7.5 2 13.6 102490 85
2004-05-18 07:35:01 51°9.696 2°34.692 7.9 2 13.6 102490 85
2004-05-18 07:35:06 51°9.709 2°34.702 8.4 1 13.6 102490 85
2004-05-18 07:35:12 51°9.726 2°34.716 8.5 3 13.6 102490 85
2004-05-18 07:35:21 51°9.751 2°34.738 8.6 3 13.6 102490 84
2004-05-18 07:35:28 51°9.772 2°34.756 8.8 4 13.6 102480 84
2004-05-18 07:35:32 51°9.784 2°34.766 9 3 13.6 102480 84
2004-05-18 07:35:37 51°9.799 2°34.779 9.2 4 13.6 102480 84
2004-05-18 07:35:42 51°9.814 2°34.792 9.2 4 13.6 102480 84
2004-05-18 07:35:48 51°9.832 2°34.807 9.3 4 13.6 102480 84
2004-05-18 07:35:52 51°9.845 2°34.817 9.2 5 13.6 102480 84